Вернуться в каталог

STARLINK-38174

АктивенСвязьSSO
NORAD 100104·PAYLOAD·🇺🇸 United States

Запущен Jul 21, 2026 с Vandenberg Space Force Base

Loading…

Ближайшие Пролёты (ближайшие 24 часа)

TLE

СвежийSource: Space-Track

Эпоха: Sep 14, 2026, 18:57 UTC

1 A0104U 26166D   26257.78995720  .00170607  00000-0  11171-2 0  9999
2 A0104  97.2822 275.8433 0001445  66.0228 294.1188 15.75291617  8709

Отслеживайте STARLINK-38174 в реальном времени с AllMySat

Download on the App Store